Weather History for Kalispell, MT

Change the Weather History Date:

Friday, April 12, 2013

  Actual Average Record
Temperature  
Mean Temperature 37 °F 43 °F  
Max Temperature 52 °F 55 °F 75 °F (1913)
Min Temperature 22 °F 31 °F 14 °F (1997)
Degree Days  
Heating Degree Days 28 22  
Month to date heating degree days 275 280  
Since 1 July heating degree days 6455 7051  
Cooling Degree Days 0 0  
Month to date cooling degree days 0 0  
Year to date cooling degree days 0 0  
Moisture  
Dew Point 29 °F    
Average Humidity 67    
Maximum Humidity 92    
Minimum Humidity 42    
Precipitation  
Precipitation 0.08 in 0.04 in 0.50 in (1933)
Month to date precipitation 0.46 0.47  
Year to date precipitation 2.41 3.86  
Snow  
Snow 0.00 in - - ()
Month to date snowfall T  
Year to date snowfall 8.3  
Since 1 July snowfall 17.1  
Snow Depth 0.00 in    
Sea Level Pressure  
Sea Level Pressure 29.96 in    
Wind  
Wind Speed 6 mph (SSE)    
Max Wind Speed 18 mph    
Max Gust Speed 25 mph    
Visibility 9 miles    
Events Rain    
T = Trace of Precipitation, MM = Missing Value Source: NWS Daily Summary

Daily Weather History Graph

Daily Weather History Graph

Search for Another Location

Airport:

Trip Planner

Search our weather history database for the weather conditions in past years. The results will help you decide how hot, cold, wet, or windy it might be!

Date:

Astronomy

Apr. 12, 2013 Rise Set
Actual Time 6:52 AM MDT 8:24 PM MDT
Civil Twilight 6:19 AM MDT 8:56 PM MDT
Nautical Twilight 5:40 AM MDT 9:36 PM MDT
Astronomical Twilight 4:57 AM MDT 10:19 PM MDT
Moon 7:54 AM MDT (4/12) 11:10 PM MDT (4/12)
Length of Visible Light 14h 36m
Length of Day
13h 31m
Waxing Crescent, 5% of the Moon is Illuminated
Apr 12
Waxing Crescent
Apr 18
First Quarter
Apr 25
Full
May 2
Last Quarter
May 9
New

Hourly Weather History & Observations

Time (MDT) Temp. Windchill Dew Point Humidity Pressure Visibility Wind Dir Wind Speed Gust Speed Precip Events Conditions
12:55 AM 35.1 °F 30.1 °F 28.9 °F 78% 30.07 in 10.0 mi South 5.8 mph - N/A   Scattered Clouds
1:55 AM 34.0 °F 31.0 °F 28.9 °F 82% 30.08 in 10.0 mi SSW 3.5 mph - N/A   Overcast
2:55 AM 32.0 °F - 28.0 °F 85% 30.08 in 10.0 mi Calm Calm - N/A   Mostly Cloudy
3:55 AM 27.0 °F - 25.0 °F 92% 30.09 in 10.0 mi Calm Calm - N/A   Clear
4:55 AM 25.0 °F - 23.0 °F 92% 30.10 in 10.0 mi Calm Calm - N/A   Clear
5:55 AM 24.1 °F - 23.0 °F 96% 30.11 in 8.0 mi Calm Calm - N/A   Clear
6:55 AM 24.1 °F - 23.0 °F 96% 30.12 in 10.0 mi Calm Calm - N/A   Clear
7:31 AM 24.8 °F - 21.2 °F 86% 30.06 in 1.8 mi Calm Calm - N/A   Clear
7:41 AM 24.8 °F - 21.2 °F 86% 30.06 in 3.0 mi Calm Calm - N/A   Clear
7:55 AM 26.1 °F - 24.1 °F 92% 30.12 in 7.0 mi Calm Calm - N/A   Clear
8:13 AM 28.4 °F - 26.6 °F 93% 30.06 in 3.0 mi Calm Calm - N/A   Mostly Cloudy
8:30 AM 30.2 °F - 28.4 °F 93% 30.05 in 10.0 mi Calm Calm - N/A   Clear
8:55 AM 36.0 °F - 32.0 °F 86% 30.10 in 10.0 mi Calm Calm - N/A   Clear
9:19 AM 37.4 °F - 32.0 °F 81% 30.05 in 10.0 mi Calm Calm - N/A   Mostly Cloudy
9:44 AM 42.8 °F 41.1 °F 32.0 °F 66% 30.04 in 10.0 mi Variable 3.5 mph - N/A   Scattered Clouds
9:55 AM 39.9 °F - 33.1 °F 77% 30.09 in 10.0 mi Calm Calm - N/A   Partly Cloudy
10:55 AM 43.0 °F 40.3 °F 30.9 °F 62% 30.05 in 10.0 mi ESE 4.6 mph - N/A   Scattered Clouds
11:09 AM 42.8 °F 40.1 °F 30.2 °F 61% 30.00 in 10.0 mi SE 4.6 mph - N/A   Mostly Cloudy
11:25 AM 44.6 °F 40.7 °F 30.2 °F 57% 30.00 in 10.0 mi ESE 6.9 mph - N/A   Scattered Clouds
11:55 AM 45.0 °F 41.2 °F 28.9 °F 53% 30.04 in 10.0 mi SSE 6.9 mph - N/A   Overcast
12:55 PM 46.9 °F - 28.0 °F 48% 30.00 in 10.0 mi SSE 9.2 mph - N/A   Mostly Cloudy
1:55 PM 48.0 °F - 27.0 °F 44% 29.95 in 10.0 mi SSE 12.7 mph - N/A   Mostly Cloudy
2:55 PM 48.0 °F - 28.0 °F 46% 29.93 in 10.0 mi South 10.4 mph 18.4 mph N/A   Overcast
3:55 PM 50.0 °F - 28.9 °F 44% 29.89 in 10.0 mi SSE 11.5 mph - N/A   Overcast
4:55 PM 48.9 °F - 28.0 °F 44% 29.85 in 10.0 mi South 11.5 mph - N/A   Mostly Cloudy
5:55 PM 48.9 °F - 27.0 °F 43% 29.80 in 10.0 mi SSE 12.7 mph - N/A   Overcast
6:55 PM 48.0 °F - 27.0 °F 44% 29.76 in 10.0 mi SSE 8.1 mph - N/A   Overcast
7:55 PM 46.9 °F - 28.0 °F 48% 29.70 in 10.0 mi South 4.6 mph - N/A   Overcast
8:55 PM 42.1 °F 37.1 °F 35.1 °F 76% 29.71 in 10.0 mi WSW 8.1 mph - 0.00 in Rain Light Rain
9:55 PM 41.0 °F 39.0 °F 37.0 °F 86% 29.70 in 10.0 mi SSE 3.5 mph - 0.01 in Rain Light Rain
10:55 PM 39.9 °F 36.7 °F 37.0 °F 89% 29.65 in 10.0 mi SE 4.6 mph - 0.01 in Rain Light Rain
11:13 PM 39.2 °F 34.2 °F 37.4 °F 93% 29.60 in 10.0 mi SSE 6.9 mph - 0.01 in Rain Light Rain
11:55 PM 39.0 °F 31.4 °F 36.0 °F 89% 29.61 in 9.0 mi SSE 12.7 mph - 0.03 in Rain Light Rain